Tabellarische Ansicht des 21.1.2018


Die einzelnen Werte des Tages

Uhrzeit Temperatur Luftdruck Luftfeuchte Wind Hi-Wind Taupunkt THW Index Wind Chill Heat Index Solar- strahlung Regen

00:00

1.0 C

999.3 hpa

91 %

0.0 km/h aus 117

0.0 km/h aus ---

-0.3 C

0.9 C

1.0 C

0.9 C

0 W/m

0.00 mm

00:05

1.0 C

999.3 hpa

91 %

0.0 km/h aus 112

3.2 km/h aus SE

-0.3 C

0.9 C

1.0 C

0.9 C

0 W/m

0.00 mm

00:10

1.1 C

999.3 hpa

91 %

1.6 km/h aus 114

3.2 km/h aus SE

-0.2 C

0.9 C

1.1 C

0.9 C

0 W/m

0.00 mm

00:15

1.1 C

999.6 hpa

91 %

1.6 km/h aus 116

3.2 km/h aus SE

-0.2 C

0.9 C

1.1 C

0.9 C

0 W/m

0.00 mm

00:20

1.1 C

999.6 hpa

91 %

1.6 km/h aus 117

4.8 km/h aus SE

-0.2 C

0.9 C

1.1 C

0.9 C

0 W/m

0.00 mm

00:25

1.1 C

999.6 hpa

91 %

3.2 km/h aus 116

6.4 km/h aus NNW

-0.2 C

0.5 C

0.6 C

0.9 C

0 W/m

0.00 mm

00:30

1.1 C

1000.0 hpa

91 %

3.2 km/h aus 117

4.8 km/h aus NW

-0.2 C

0.5 C

0.6 C

0.9 C

0 W/m

0.00 mm

00:35

1.1 C

1000.0 hpa

92 %

3.2 km/h aus 116

6.4 km/h aus WNW

-0.1 C

0.5 C

0.6 C

0.9 C

0 W/m

0.00 mm

00:40

1.1 C

1000.0 hpa

92 %

3.2 km/h aus 116

6.4 km/h aus WNW

-0.1 C

0.5 C

0.6 C

0.9 C

0 W/m

0.00 mm

00:45

1.1 C

1000.2 hpa

92 %

1.6 km/h aus 114

3.2 km/h aus WNW

-0.1 C

0.9 C

1.1 C

0.9 C

0 W/m

0.00 mm

00:50

1.1 C

1000.2 hpa

92 %

0.0 km/h aus 115

1.6 km/h aus WNW

-0.1 C

0.9 C

1.1 C

0.9 C

0 W/m

0.00 mm

00:55

1.1 C

1000.2 hpa

92 %

0.0 km/h aus 117

0.0 km/h aus ---

-0.1 C

0.9 C

1.1 C

0.9 C

0 W/m

0.00 mm

01:00

1.0 C

1000.5 hpa

92 %

0.0 km/h aus 116

1.6 km/h aus WNW

-0.2 C

0.9 C

1.0 C

0.9 C

0 W/m

0.00 mm

01:05

0.9 C

1000.5 hpa

92 %

0.0 km/h aus 117

0.0 km/h aus ---

-0.2 C

0.8 C

0.9 C

0.8 C

0 W/m

0.00 mm

01:10

0.9 C

1000.5 hpa

92 %

0.0 km/h aus 117

0.0 km/h aus ---

-0.2 C

0.8 C

0.9 C

0.8 C

0 W/m

0.00 mm

01:15

0.9 C

1000.6 hpa

92 %

0.0 km/h aus 117

0.0 km/h aus ---

-0.2 C

0.8 C

0.9 C

0.8 C

0 W/m

0.00 mm

01:20

0.9 C

1000.6 hpa

92 %

0.0 km/h aus 114

0.0 km/h aus ---

-0.3 C

0.8 C

0.9 C

0.8 C

0 W/m

0.00 mm

01:25

0.9 C

1000.6 hpa

92 %

0.0 km/h aus 115

1.6 km/h aus WNW

-0.3 C

0.8 C

0.9 C

0.8 C

0 W/m

0.00 mm

01:30

0.8 C

1001.0 hpa

92 %

0.0 km/h aus 116

1.6 km/h aus WNW

-0.3 C

0.7 C

0.8 C

0.7 C

0 W/m

0.00 mm

01:35

0.8 C

1001.0 hpa

92 %

1.6 km/h aus 118

3.2 km/h aus WNW

-0.3 C

0.7 C

0.8 C

0.7 C

0 W/m

0.00 mm

01:40

0.8 C

1001.0 hpa

92 %

0.0 km/h aus 116

1.6 km/h aus WNW

-0.3 C

0.7 C

0.8 C

0.7 C

0 W/m

0.00 mm

01:45

0.9 C

1001.2 hpa

92 %

1.6 km/h aus 117

3.2 km/h aus WNW

-0.3 C

0.8 C

0.9 C

0.8 C

0 W/m

0.00 mm

01:50

0.9 C

1001.2 hpa

92 %

1.6 km/h aus 117

4.8 km/h aus WNW

-0.3 C

0.8 C

0.9 C

0.8 C

0 W/m

0.00 mm

01:55

0.9 C

1001.2 hpa

92 %

3.2 km/h aus 113

6.4 km/h aus WNW

-0.2 C

0.3 C

0.4 C

0.8 C

0 W/m

0.00 mm

02:00

0.9 C

1001.6 hpa

92 %

3.2 km/h aus 114

8.0 km/h aus WSW

-0.2 C

0.3 C

0.4 C

0.8 C

0 W/m

0.00 mm

02:05

1.0 C

1001.6 hpa

92 %

3.2 km/h aus 115

6.4 km/h aus W

-0.2 C

0.4 C

0.5 C

0.9 C

0 W/m

0.00 mm

02:10

1.0 C

1001.6 hpa

92 %

1.6 km/h aus 117

4.8 km/h aus W

-0.2 C

0.9 C

1.0 C

0.9 C

0 W/m

0.00 mm

02:15

1.0 C

1001.8 hpa

92 %

3.2 km/h aus 117

4.8 km/h aus W

-0.2 C

0.4 C

0.5 C

0.9 C

0 W/m

0.00 mm

02:20

1.0 C

1001.8 hpa

92 %

3.2 km/h aus 117

6.4 km/h aus W

-0.2 C

0.4 C

0.5 C

0.9 C

0 W/m

0.00 mm

02:25

1.0 C

1001.8 hpa

92 %

3.2 km/h aus 117

4.8 km/h aus W

-0.2 C

0.4 C

0.5 C

0.9 C

0 W/m

0.00 mm

02:30

1.1 C

1002.1 hpa

92 %

3.2 km/h aus 116

4.8 km/h aus W

-0.1 C

0.5 C

0.6 C

0.9 C

0 W/m

0.00 mm

02:35

1.1 C

1002.1 hpa

92 %

1.6 km/h aus 115

4.8 km/h aus W

-0.1 C

0.9 C

1.1 C

0.9 C

0 W/m

0.00 mm

02:40

1.1 C

1002.1 hpa

92 %

1.6 km/h aus 115

4.8 km/h aus W

-0.1 C

0.9 C

1.1 C

0.9 C

0 W/m

0.00 mm

02:45

1.1 C

1002.4 hpa

92 %

3.2 km/h aus 117

4.8 km/h aus W

-0.1 C

0.5 C

0.6 C

0.9 C

0 W/m

0.00 mm

02:50

1.1 C

1002.4 hpa

92 %

3.2 km/h aus 116

6.4 km/h aus W

0.0 C

0.6 C

0.7 C

1.0 C

0 W/m

0.00 mm

02:55

1.1 C

1002.4 hpa

92 %

3.2 km/h aus 116

6.4 km/h aus W

0.0 C

0.6 C

0.7 C

1.0 C

0 W/m

0.00 mm

03:00

1.1 C

1002.6 hpa

92 %

1.6 km/h aus 117

4.8 km/h aus W

0.0 C

1.0 C

1.1 C

1.0 C

0 W/m

0.00 mm

03:05

1.1 C

1002.6 hpa

92 %

1.6 km/h aus 117

3.2 km/h aus W

0.0 C

1.0 C

1.1 C

1.0 C

0 W/m

0.00 mm

03:10

1.1 C

1002.6 hpa

92 %

1.6 km/h aus 114

4.8 km/h aus W

-0.1 C

0.9 C

1.1 C

0.9 C

0 W/m

0.00 mm

03:15

1.1 C

1002.8 hpa

92 %

1.6 km/h aus 115

4.8 km/h aus W

-0.1 C

0.9 C

1.1 C

0.9 C

0 W/m

0.00 mm

03:20

1.1 C

1002.8 hpa

92 %

1.6 km/h aus 116

4.8 km/h aus W

-0.1 C

0.9 C

1.1 C

0.9 C

0 W/m

0.00 mm

03:25

1.1 C

1002.8 hpa

93 %

1.6 km/h aus 117

4.8 km/h aus W

0.1 C

1.0 C

1.1 C

1.0 C

0 W/m

0.00 mm

03:30

1.1 C

1003.0 hpa

93 %

1.6 km/h aus 116

4.8 km/h aus W

0.1 C

1.0 C

1.1 C

1.0 C

0 W/m

0.00 mm

03:35

1.1 C

1003.0 hpa

93 %

3.2 km/h aus 116

6.4 km/h aus W

0.1 C

0.6 C

0.6 C

1.0 C

0 W/m

0.00 mm

03:40

1.1 C

1003.0 hpa

93 %

4.8 km/h aus 116

8.0 km/h aus W

0.1 C

-0.3 C

-0.3 C

1.0 C

0 W/m

0.00 mm

03:45

1.1 C

1003.2 hpa

93 %

4.8 km/h aus 114

9.7 km/h aus W

0.1 C

-0.3 C

-0.3 C

1.0 C

0 W/m

0.00 mm

03:50

1.1 C

1003.2 hpa

93 %

4.8 km/h aus 115

9.7 km/h aus W

0.1 C

-0.3 C

-0.3 C

1.0 C

0 W/m

0.00 mm

03:55

1.1 C

1003.2 hpa

93 %

4.8 km/h aus 116

8.0 km/h aus NW

0.1 C

-0.3 C

-0.2 C

1.1 C

0 W/m

0.00 mm

04:00

1.1 C

1003.4 hpa

93 %

4.8 km/h aus 117

11.3 km/h aus W

0.1 C

-0.3 C

-0.2 C

1.1 C

0 W/m

0.00 mm

04:05

1.2 C

1003.4 hpa

93 %

4.8 km/h aus 116

11.3 km/h aus W

0.2 C

-0.2 C

-0.2 C

1.1 C

0 W/m

0.00 mm

04:10

1.2 C

1003.4 hpa

93 %

4.8 km/h aus 117

8.0 km/h aus W

0.2 C

-0.2 C

-0.2 C

1.1 C

0 W/m

0.00 mm

04:15

1.2 C

1003.7 hpa

93 %

4.8 km/h aus 115

9.7 km/h aus WSW

0.2 C

-0.2 C

-0.2 C

1.1 C

0 W/m

0.00 mm

04:20

1.2 C

1003.7 hpa

93 %

6.4 km/h aus 116

11.3 km/h aus WSW

0.2 C

-0.9 C

-0.8 C

1.1 C

0 W/m

0.00 mm

04:25

1.2 C

1003.7 hpa

93 %

4.8 km/h aus 114

9.7 km/h aus WNW

0.2 C

-0.2 C

-0.2 C

1.1 C

0 W/m

0.00 mm

04:30

1.2 C

1004.0 hpa

93 %

3.2 km/h aus 115

6.4 km/h aus WSW

0.2 C

0.7 C

0.7 C

1.1 C

0 W/m

0.00 mm

04:35

1.1 C

1004.0 hpa

93 %

4.8 km/h aus 117

8.0 km/h aus WSW

0.1 C

-0.3 C

-0.2 C

1.1 C

0 W/m

0.00 mm

04:40

1.1 C

1004.0 hpa

93 %

4.8 km/h aus 117

6.4 km/h aus W

0.1 C

-0.3 C

-0.2 C

1.1 C

0 W/m

0.00 mm

04:45

1.1 C

1004.2 hpa

93 %

3.2 km/h aus 116

6.4 km/h aus W

0.1 C

0.6 C

0.7 C

1.1 C

0 W/m

0.00 mm

04:50

1.1 C

1004.2 hpa

93 %

3.2 km/h aus 116

6.4 km/h aus WNW

0.1 C

0.6 C

0.7 C

1.1 C

0 W/m

0.00 mm

04:55

1.1 C

1004.2 hpa

93 %

1.6 km/h aus 117

4.8 km/h aus W

0.1 C

1.0 C

1.1 C

1.0 C

0 W/m

0.25 mm

05:00

1.0 C

1004.7 hpa

93 %

3.2 km/h aus 115

8.0 km/h aus W

0.0 C

0.4 C

0.5 C

0.9 C

0 W/m

0.00 mm

05:05

0.9 C

1004.7 hpa

93 %

1.6 km/h aus 113

4.8 km/h aus W

-0.1 C

0.9 C

0.9 C

0.9 C

0 W/m

0.00 mm

05:10

0.9 C

1004.7 hpa

93 %

3.2 km/h aus 117

6.4 km/h aus W

-0.1 C

0.4 C

0.4 C

0.9 C

0 W/m

0.00 mm

05:15

0.9 C

1004.8 hpa

93 %

3.2 km/h aus 116

6.4 km/h aus W

-0.1 C

0.3 C

0.4 C

0.8 C

0 W/m

0.00 mm

05:20

0.9 C

1004.8 hpa

93 %

1.6 km/h aus 117

6.4 km/h aus W

-0.1 C

0.8 C

0.9 C

0.8 C

0 W/m

0.00 mm

05:25

0.9 C

1004.8 hpa

93 %

1.6 km/h aus 117

4.8 km/h aus W

-0.1 C

0.8 C

0.9 C

0.8 C

0 W/m

0.00 mm

05:30

0.9 C

1005.2 hpa

93 %

1.6 km/h aus 117

4.8 km/h aus W

-0.1 C

0.8 C

0.9 C

0.8 C

0 W/m

0.00 mm

05:35

0.9 C

1005.2 hpa

94 %

3.2 km/h aus 115

8.0 km/h aus WSW

0.0 C

0.3 C

0.4 C

0.8 C

0 W/m

0.00 mm

05:40

0.9 C

1005.2 hpa

94 %

3.2 km/h aus 114

6.4 km/h aus W

0.0 C

0.3 C

0.4 C

0.8 C

0 W/m

0.00 mm

05:45

0.9 C

1005.3 hpa

94 %

1.6 km/h aus 116

6.4 km/h aus W

0.0 C

0.8 C

0.9 C

0.8 C

0 W/m

0.00 mm

05:50

0.9 C

1005.3 hpa

94 %

1.6 km/h aus 116

6.4 km/h aus W

0.0 C

0.8 C

0.9 C

0.8 C

0 W/m

0.00 mm

05:55

0.9 C

1005.3 hpa

94 %

1.6 km/h aus 117

8.0 km/h aus WSW

0.1 C

0.9 C

0.9 C

0.9 C

0 W/m

0.00 mm

06:00

0.9 C

1005.6 hpa

94 %

1.6 km/h aus 118

6.4 km/h aus WSW

0.1 C

0.9 C

0.9 C

0.9 C

0 W/m

0.00 mm

06:05

0.9 C

1005.6 hpa

94 %

0.0 km/h aus 117

1.6 km/h aus WSW

0.1 C

0.9 C

0.9 C

0.9 C

0 W/m

0.00 mm

06:10

0.9 C

1005.6 hpa

94 %

0.0 km/h aus 117

1.6 km/h aus WSW

0.0 C

0.8 C

0.9 C

0.8 C

0 W/m

0.25 mm

06:15

0.9 C

1005.8 hpa

94 %

0.0 km/h aus 114

0.0 km/h aus ---

0.0 C

0.8 C

0.9 C

0.8 C

0 W/m

0.00 mm

06:20

0.8 C

1005.8 hpa

93 %

0.0 km/h aus 114

0.0 km/h aus ---

-0.2 C

0.8 C

0.8 C

0.8 C

0 W/m

0.00 mm

06:25

0.8 C

1005.8 hpa

93 %

0.0 km/h aus 117

0.0 km/h aus ---

-0.2 C

0.8 C

0.8 C

0.8 C

0 W/m

0.00 mm

06:30

0.8 C

1006.0 hpa

93 %

0.0 km/h aus 117

1.6 km/h aus WSW

-0.2 C

0.7 C

0.8 C

0.7 C

0 W/m

0.00 mm

06:35

0.8 C

1006.0 hpa

93 %

1.6 km/h aus 117

3.2 km/h aus WSW

-0.2 C

0.7 C

0.8 C

0.7 C

0 W/m

0.00 mm

06:40

0.8 C

1006.0 hpa

93 %

1.6 km/h aus 117

6.4 km/h aus WSW

-0.2 C

0.7 C

0.8 C

0.7 C

0 W/m

0.00 mm

06:45

0.8 C

1006.3 hpa

94 %

3.2 km/h aus 117

6.4 km/h aus WSW

-0.1 C

0.2 C

0.3 C

0.7 C

0 W/m

0.00 mm

06:50

0.8 C

1006.3 hpa

94 %

4.8 km/h aus 114

8.0 km/h aus WSW

0.0 C

-0.6 C

-0.6 C

0.8 C

0 W/m

0.00 mm

06:55

0.8 C

1006.3 hpa

94 %

3.2 km/h aus 114

9.7 km/h aus WSW

0.0 C

0.3 C

0.3 C

0.8 C

0 W/m

0.00 mm

07:00

0.9 C

1006.5 hpa

94 %

3.2 km/h aus 116

11.3 km/h aus SSW

0.0 C

0.3 C

0.4 C

0.8 C

0 W/m

0.00 mm

07:05

0.9 C

1006.5 hpa

94 %

4.8 km/h aus 117

11.3 km/h aus WSW

0.0 C

-0.6 C

-0.5 C

0.8 C

0 W/m

0.00 mm

07:10

0.9 C

1006.5 hpa

94 %

6.4 km/h aus 116

17.7 km/h aus WSW

0.1 C

-1.2 C

-1.1 C

0.9 C

0 W/m

0.00 mm

07:15

1.0 C

1006.8 hpa

94 %

3.2 km/h aus 117

8.0 km/h aus WSW

0.1 C

0.4 C

0.5 C

0.9 C

0 W/m

0.00 mm

07:20

1.1 C

1006.8 hpa

94 %

3.2 km/h aus 117

8.0 km/h aus WNW

0.2 C

0.6 C

0.6 C

1.0 C

0 W/m

0.00 mm

07:25

1.1 C

1006.8 hpa

94 %

3.2 km/h aus 116

8.0 km/h aus W

0.2 C

0.6 C

0.6 C

1.0 C

0 W/m

0.00 mm

07:30

1.1 C

1007.3 hpa

94 %

3.2 km/h aus 114

8.0 km/h aus W

0.2 C

0.6 C

0.6 C

1.0 C

0 W/m

0.00 mm

07:35

1.1 C

1007.3 hpa

94 %

3.2 km/h aus 112

4.8 km/h aus W

0.2 C

0.6 C

0.6 C

1.0 C

0 W/m

0.00 mm

07:40

1.1 C

1007.3 hpa

94 %

3.2 km/h aus 116

8.0 km/h aus WSW

0.2 C

0.6 C

0.6 C

1.0 C

0 W/m

0.00 mm

07:45

1.1 C

1007.5 hpa

94 %

3.2 km/h aus 117

9.7 km/h aus W

0.2 C

0.6 C

0.6 C

1.0 C

0 W/m

0.00 mm

07:50

1.1 C

1007.5 hpa

94 %

1.6 km/h aus 117

6.4 km/h aus W

0.2 C

1.0 C

1.1 C

1.0 C

0 W/m

0.00 mm

07:55

1.1 C

1007.5 hpa

94 %

3.2 km/h aus 117

8.0 km/h aus SSW

0.2 C

0.6 C

0.6 C

1.0 C

0 W/m

0.00 mm

08:00

1.1 C

1007.9 hpa

94 %

3.2 km/h aus 115

9.7 km/h aus WSW

0.3 C

0.6 C

0.7 C

1.1 C

0 W/m

0.00 mm

08:05

1.1 C

1007.9 hpa

94 %

3.2 km/h aus 113

8.0 km/h aus SW

0.3 C

0.6 C

0.7 C

1.1 C

0 W/m

0.00 mm

08:10

1.1 C

1007.9 hpa

94 %

1.6 km/h aus 115

8.0 km/h aus SW

0.3 C

1.1 C

1.1 C

1.1 C

0 W/m

0.00 mm

08:15

1.1 C

1008.1 hpa

94 %

1.6 km/h aus 115

4.8 km/h aus SW

0.3 C

1.1 C

1.1 C

1.1 C

0 W/m

0.00 mm

08:20

1.1 C

1008.1 hpa

94 %

3.2 km/h aus 117

8.0 km/h aus SSW

0.3 C

0.6 C

0.7 C

1.1 C

0 W/m

0.00 mm

08:25

1.1 C

1008.1 hpa

94 %

3.2 km/h aus 117

9.7 km/h aus SW

0.3 C

0.6 C

0.7 C

1.1 C

0 W/m

0.00 mm

08:30

1.1 C

1008.4 hpa

94 %

3.2 km/h aus 117

11.3 km/h aus WSW

0.3 C

0.6 C

0.7 C

1.1 C

3 W/m

0.00 mm

08:35

1.1 C

1008.4 hpa

94 %

4.8 km/h aus 117

9.7 km/h aus WSW

0.3 C

-0.3 C

-0.2 C

1.1 C

5 W/m

0.00 mm

08:40

1.1 C

1008.4 hpa

94 %

4.8 km/h aus 115

11.3 km/h aus WSW

0.3 C

-0.3 C

-0.2 C

1.1 C

7 W/m

0.00 mm

08:45

1.1 C

1008.8 hpa

94 %

4.8 km/h aus 114

11.3 km/h aus W

0.3 C

-0.3 C

-0.2 C

1.1 C

8 W/m

0.00 mm

08:50

1.2 C

1008.8 hpa

94 %

8.0 km/h aus 114

14.5 km/h aus W

0.3 C

-1.4 C

-1.4 C

1.1 C

12 W/m

0.00 mm

08:55

1.2 C

1008.8 hpa

94 %

6.4 km/h aus 116

9.7 km/h aus W

0.3 C

-0.9 C

-0.8 C

1.1 C

17 W/m

0.00 mm

09:00

1.2 C

1009.2 hpa

94 %

4.8 km/h aus 117

8.0 km/h aus W

0.3 C

-0.2 C

-0.2 C

1.1 C

15 W/m

0.00 mm

09:05

1.2 C

1009.2 hpa

94 %

4.8 km/h aus 115

9.7 km/h aus WSW

0.3 C

-0.2 C

-0.2 C

1.1 C

18 W/m

0.00 mm

09:10

1.2 C

1009.2 hpa

94 %

4.8 km/h aus 117

11.3 km/h aus WSW

0.3 C

-0.2 C

-0.2 C

1.1 C

19 W/m

0.00 mm

09:15

1.2 C

1009.4 hpa

94 %

6.4 km/h aus 118

11.3 km/h aus W

0.3 C

-0.9 C

-0.8 C

1.1 C

21 W/m

0.00 mm

09:20

1.2 C

1009.4 hpa

94 %

4.8 km/h aus 115

8.0 km/h aus WNW

0.3 C

-0.2 C

-0.2 C

1.1 C

20 W/m

0.00 mm

09:25

1.2 C

1009.4 hpa

94 %

3.2 km/h aus 113

8.0 km/h aus SSW

0.3 C

0.7 C

0.7 C

1.1 C

21 W/m

0.00 mm

09:30

1.2 C

1009.5 hpa

94 %

4.8 km/h aus 117

8.0 km/h aus W

0.3 C

-0.2 C

-0.2 C

1.1 C

23 W/m

0.00 mm

09:35

1.2 C

1009.5 hpa

94 %

3.2 km/h aus 117

8.0 km/h aus SW

0.3 C

0.7 C

0.7 C

1.1 C

29 W/m

0.00 mm

09:40

1.2 C

1009.5 hpa

94 %

3.2 km/h aus 116

8.0 km/h aus WSW

0.3 C

0.7 C

0.7 C

1.1 C

39 W/m

0.00 mm

09:45

1.2 C

1009.9 hpa

94 %

4.8 km/h aus 117

11.3 km/h aus WSW

0.3 C

-0.2 C

-0.2 C

1.1 C

48 W/m

0.00 mm

09:50

1.2 C

1009.9 hpa

94 %

3.2 km/h aus 117

8.0 km/h aus W

0.3 C

0.7 C

0.7 C

1.1 C

56 W/m

0.00 mm

09:55

1.2 C

1009.9 hpa

94 %

4.8 km/h aus 115

11.3 km/h aus W

0.4 C

-0.2 C

-0.1 C

1.2 C

56 W/m

0.00 mm

10:00

1.3 C

1010.1 hpa

94 %

6.4 km/h aus 114

16.1 km/h aus WSW

0.4 C

-0.8 C

-0.7 C

1.2 C

52 W/m

0.00 mm

10:05

1.3 C

1010.1 hpa

94 %

4.8 km/h aus 115

11.3 km/h aus SSW

0.4 C

-0.1 C

-0.1 C

1.2 C

46 W/m

0.00 mm

10:10

1.3 C

1010.1 hpa

94 %

4.8 km/h aus 117

6.4 km/h aus W

0.4 C

-0.1 C

-0.1 C

1.2 C

42 W/m

0.00 mm

10:15

1.3 C

1010.3 hpa

94 %

3.2 km/h aus 115

8.0 km/h aus WSW

0.5 C

0.8 C

0.9 C

1.3 C

36 W/m

0.00 mm

10:20

1.3 C

1010.3 hpa

94 %

1.6 km/h aus 117

4.8 km/h aus WSW

0.5 C

1.3 C

1.3 C

1.3 C

39 W/m

0.00 mm

10:25

1.4 C

1010.3 hpa

94 %

0.0 km/h aus 117

1.6 km/h aus WSW

0.5 C

1.3 C

1.4 C

1.3 C

53 W/m

0.00 mm

10:30

1.4 C

1010.5 hpa

94 %

1.6 km/h aus 115

3.2 km/h aus WSW

0.6 C

1.4 C

1.4 C

1.4 C

54 W/m

0.00 mm

10:35

1.5 C

1010.5 hpa

94 %

0.0 km/h aus 115

3.2 km/h aus WSW

0.6 C

1.5 C

1.5 C

1.5 C

51 W/m

0.00 mm

10:40

1.6 C

1010.5 hpa

94 %

1.6 km/h aus 115

4.8 km/h aus WSW

0.7 C

1.6 C

1.6 C

1.6 C

51 W/m

0.00 mm

10:45

1.6 C

1010.7 hpa

94 %

3.2 km/h aus 116

4.8 km/h aus WSW

0.7 C

1.1 C

1.1 C

1.6 C

57 W/m

0.00 mm

10:50

1.6 C

1010.7 hpa

94 %

0.0 km/h aus 117

3.2 km/h aus WSW

0.7 C

1.6 C

1.6 C

1.6 C

67 W/m

0.00 mm

10:55

1.7 C

1010.7 hpa

94 %

3.2 km/h aus 117

4.8 km/h aus WSW

0.8 C

1.3 C

1.3 C

1.7 C

55 W/m

0.00 mm

11:00

1.7 C

1011.0 hpa

94 %

3.2 km/h aus 117

6.4 km/h aus SSW

0.8 C

1.3 C

1.3 C

1.7 C

62 W/m

0.00 mm

11:05

1.7 C

1011.0 hpa

94 %

3.2 km/h aus 116

4.8 km/h aus SSW

0.9 C

1.3 C

1.3 C

1.7 C

58 W/m

0.00 mm

11:10

1.7 C

1011.0 hpa

94 %

3.2 km/h aus 114

4.8 km/h aus SSW

0.9 C

1.3 C

1.3 C

1.7 C

66 W/m

0.00 mm

11:15

1.8 C

1011.0 hpa

94 %

1.6 km/h aus 116

4.8 km/h aus SSW

0.9 C

1.8 C

1.8 C

1.8 C

62 W/m

0.00 mm

11:20

1.8 C

1011.0 hpa

94 %

1.6 km/h aus 117

3.2 km/h aus SSW

0.9 C

1.8 C

1.8 C

1.8 C

62 W/m

0.00 mm

11:25

1.8 C

1011.0 hpa

94 %

1.6 km/h aus 118

3.2 km/h aus SSW

1.0 C

1.8 C

1.8 C

1.8 C

63 W/m

0.00 mm

11:30

1.8 C

1011.3 hpa

94 %

0.0 km/h aus 115

1.6 km/h aus SSW

1.0 C

1.8 C

1.8 C

1.8 C

72 W/m

0.00 mm

11:35

1.9 C

1011.3 hpa

94 %

0.0 km/h aus 117

0.0 km/h aus ---

1.0 C

1.9 C

1.9 C

1.9 C

73 W/m

0.00 mm

11:40

1.9 C

1011.3 hpa

94 %

0.0 km/h aus 113

1.6 km/h aus SSW

1.1 C

1.9 C

1.9 C

1.9 C

68 W/m

0.00 mm

11:45

1.9 C

1011.5 hpa

94 %

0.0 km/h aus 115

1.6 km/h aus SSW

1.1 C

1.9 C

1.9 C

1.9 C

59 W/m

0.00 mm

11:50

1.9 C

1011.5 hpa

94 %

0.0 km/h aus 115

1.6 km/h aus SSW

1.1 C

1.9 C

1.9 C

1.9 C

46 W/m

0.00 mm

11:55

2.0 C

1011.5 hpa

94 %

0.0 km/h aus 117

1.6 km/h aus SSW

1.1 C

2.0 C

2.0 C

2.0 C

30 W/m

0.00 mm

12:00

2.1 C

1011.7 hpa

94 %

1.6 km/h aus 116

4.8 km/h aus SSW

1.2 C

2.1 C

2.1 C

2.1 C

34 W/m

0.00 mm

12:05

2.1 C

1011.7 hpa

94 %

0.0 km/h aus 117

1.6 km/h aus SSW

1.2 C

2.1 C

2.1 C

2.1 C

41 W/m

0.00 mm

12:10

2.1 C

1011.7 hpa

94 %

1.6 km/h aus 117

3.2 km/h aus SSW

1.2 C

2.1 C

2.1 C

2.1 C

47 W/m

0.00 mm

12:15

2.1 C

1012.0 hpa

94 %

1.6 km/h aus 114

3.2 km/h aus SSW

1.2 C

2.1 C

2.1 C

2.1 C

41 W/m

0.00 mm

12:20

2.2 C

1012.0 hpa

94 %

1.6 km/h aus 114

3.2 km/h aus SSW

1.3 C

2.2 C

2.2 C

2.2 C

34 W/m

0.00 mm

12:25

2.2 C

1012.0 hpa

94 %

1.6 km/h aus 116

3.2 km/h aus SSW

1.3 C

2.2 C

2.2 C

2.2 C

33 W/m

0.00 mm

12:30

2.2 C

1012.0 hpa

94 %

1.6 km/h aus 118

3.2 km/h aus SSW

1.3 C

2.2 C

2.2 C

2.2 C

33 W/m

0.00 mm

12:35

2.2 C

1012.0 hpa

94 %

0.0 km/h aus 117

1.6 km/h aus SSW

1.3 C

2.2 C

2.2 C

2.2 C

34 W/m

0.00 mm

12:40

2.2 C

1012.0 hpa

93 %

1.6 km/h aus 116

3.2 km/h aus SSW

1.2 C

2.2 C

2.2 C

2.2 C

29 W/m

0.00 mm

12:45

2.2 C

1012.0 hpa

93 %

1.6 km/h aus 117

3.2 km/h aus SSW

1.2 C

2.2 C

2.2 C

2.2 C

29 W/m

0.00 mm

12:50

2.2 C

1012.0 hpa

93 %

0.0 km/h aus 114

3.2 km/h aus SSW

1.2 C

2.2 C

2.2 C

2.2 C

34 W/m

0.00 mm

12:55

2.2 C

1012.0 hpa

94 %

0.0 km/h aus 115

1.6 km/h aus SSW

1.4 C

2.2 C

2.2 C

2.2 C

38 W/m

0.00 mm

13:00

2.2 C

1012.0 hpa

94 %

0.0 km/h aus 116

3.2 km/h aus SSW

1.4 C

2.2 C

2.2 C

2.2 C

41 W/m

0.00 mm

13:05

2.3 C

1012.0 hpa

94 %

1.6 km/h aus 117

3.2 km/h aus SSW

1.4 C

2.3 C

2.3 C

2.3 C

42 W/m

0.00 mm

13:10

2.3 C

1012.0 hpa

94 %

1.6 km/h aus 117

3.2 km/h aus SSW

1.4 C

2.3 C

2.3 C

2.3 C

46 W/m

0.00 mm

13:15

2.3 C

1012.0 hpa

94 %

1.6 km/h aus 117

4.8 km/h aus SSW

1.5 C

2.3 C

2.3 C

2.3 C

46 W/m

0.00 mm

13:20

2.4 C

1012.0 hpa

94 %

3.2 km/h aus 116

4.8 km/h aus SSW

1.5 C

2.1 C

2.1 C

2.4 C

51 W/m

0.00 mm

13:25

2.4 C

1012.0 hpa

93 %

3.2 km/h aus 114

6.4 km/h aus S

1.4 C

2.1 C

2.1 C

2.4 C

65 W/m

0.00 mm

13:30

2.4 C

1012.0 hpa

93 %

1.6 km/h aus 113

4.8 km/h aus ESE

1.4 C

2.4 C

2.4 C

2.4 C

81 W/m

0.00 mm

13:35

2.5 C

1012.0 hpa

93 %

4.8 km/h aus 118

9.7 km/h aus SSE

1.5 C

1.3 C

1.3 C

2.5 C

94 W/m

0.00 mm

13:40

2.6 C

1012.0 hpa

94 %

8.0 km/h aus 117

11.3 km/h aus SE

1.7 C

0.3 C

0.3 C

2.6 C

95 W/m

0.00 mm

13:45

2.7 C

1012.2 hpa

93 %

6.4 km/h aus 117

9.7 km/h aus SSE

1.6 C

0.9 C

0.9 C

2.7 C

93 W/m

0.00 mm

13:50

2.7 C

1012.2 hpa

93 %

6.4 km/h aus 117

9.7 km/h aus S

1.7 C

0.9 C

0.9 C

2.7 C

88 W/m

0.00 mm

13:55

2.7 C

1012.2 hpa

93 %

6.4 km/h aus 115

9.7 km/h aus S

1.7 C

0.9 C

0.9 C

2.7 C

85 W/m

0.00 mm

14:00

2.8 C

1012.4 hpa

93 %

4.8 km/h aus 114

9.7 km/h aus S

1.8 C

1.7 C

1.7 C

2.8 C

83 W/m

0.00 mm

14:05

2.8 C

1012.4 hpa

93 %

4.8 km/h aus 115

8.0 km/h aus SSW

1.8 C

1.7 C

1.7 C

2.8 C

65 W/m

0.00 mm

14:10

2.8 C

1012.4 hpa

93 %

4.8 km/h aus 117

11.3 km/h aus SW

1.8 C

1.7 C

1.7 C

2.8 C

50 W/m

0.00 mm

14:15

2.8 C

1012.6 hpa

93 %

4.8 km/h aus 117

9.7 km/h aus SSW

1.8 C

1.7 C

1.7 C

2.8 C

39 W/m

0.00 mm

14:20

2.8 C

1012.6 hpa

93 %

4.8 km/h aus 117

8.0 km/h aus S

1.8 C

1.7 C

1.7 C

2.8 C

54 W/m

0.00 mm

14:25

2.8 C

1012.6 hpa

93 %

4.8 km/h aus 117

9.7 km/h aus SSW

1.8 C

1.7 C

1.7 C

2.8 C

52 W/m

0.00 mm

14:30

2.8 C

1012.7 hpa

93 %

4.8 km/h aus 116

9.7 km/h aus SSW

1.8 C

1.7 C

1.7 C

2.8 C

52 W/m

0.00 mm

14:35

2.8 C

1012.7 hpa

92 %

6.4 km/h aus 113

11.3 km/h aus SW

1.7 C

1.1 C

1.1 C

2.8 C

42 W/m

0.00 mm

14:40

2.8 C

1012.7 hpa

92 %

8.0 km/h aus 117

11.3 km/h aus SSW

1.7 C

0.6 C

0.6 C

2.8 C

35 W/m

0.00 mm

14:45

2.8 C

1012.7 hpa

92 %

4.8 km/h aus 117

8.0 km/h aus S

1.6 C

1.6 C

1.7 C

2.7 C

33 W/m

0.00 mm

14:50

2.8 C

1012.7 hpa

92 %

6.4 km/h aus 116

9.7 km/h aus S

1.6 C

1.0 C

1.1 C

2.7 C

39 W/m

0.00 mm

14:55

2.8 C

1012.7 hpa

92 %

4.8 km/h aus 117

8.0 km/h aus S

1.7 C

1.7 C

1.7 C

2.8 C

35 W/m

0.00 mm

15:00

2.8 C

1013.0 hpa

92 %

3.2 km/h aus 117

6.4 km/h aus S

1.7 C

2.5 C

2.6 C

2.8 C

44 W/m

0.00 mm

15:05

2.8 C

1013.0 hpa

92 %

4.8 km/h aus 115

6.4 km/h aus S

1.7 C

1.7 C

1.7 C

2.8 C

50 W/m

0.00 mm

15:10

2.8 C

1013.0 hpa

92 %

4.8 km/h aus 114

9.7 km/h aus SSW

1.7 C

1.7 C

1.7 C

2.8 C

39 W/m

0.00 mm

15:15

2.8 C

1013.1 hpa

92 %

4.8 km/h aus 117

8.0 km/h aus S

1.7 C

1.7 C

1.7 C

2.8 C

36 W/m

0.00 mm

15:20

2.9 C

1013.1 hpa

92 %

4.8 km/h aus 115

8.0 km/h aus S

1.7 C

1.7 C

1.8 C

2.8 C

44 W/m

0.00 mm

15:25

2.9 C

1013.1 hpa

91 %

6.4 km/h aus 115

8.0 km/h aus S

1.6 C

1.1 C

1.2 C

2.8 C

47 W/m

0.00 mm

15:30

2.9 C

1013.2 hpa

91 %

4.8 km/h aus 117

8.0 km/h aus S

1.6 C

1.7 C

1.8 C

2.8 C

41 W/m

0.00 mm

15:35

2.9 C

1013.2 hpa

91 %

4.8 km/h aus 116

6.4 km/h aus S

1.6 C

1.7 C

1.8 C

2.8 C

29 W/m

0.00 mm

15:40

2.9 C

1013.2 hpa

91 %

4.8 km/h aus 114

6.4 km/h aus S

1.6 C

1.7 C

1.8 C

2.8 C

19 W/m

0.00 mm

15:45

2.9 C

1013.5 hpa

91 %

6.4 km/h aus 115

8.0 km/h aus S

1.6 C

1.1 C

1.2 C

2.8 C

10 W/m

0.00 mm

15:50

2.9 C

1013.5 hpa

91 %

6.4 km/h aus 117

9.7 km/h aus SSE

1.6 C

1.1 C

1.2 C

2.8 C

2 W/m

0.00 mm

15:55

2.8 C

1013.5 hpa

91 %

6.4 km/h aus 117

9.7 km/h aus S

1.5 C

1.1 C

1.1 C

2.8 C

0 W/m

0.00 mm

16:00

2.8 C

1013.6 hpa

91 %

8.0 km/h aus 116

9.7 km/h aus S

1.5 C

0.6 C

0.6 C

2.8 C

2 W/m

0.00 mm

16:05

2.8 C

1013.6 hpa

91 %

6.4 km/h aus 117

9.7 km/h aus S

1.5 C

1.0 C

1.1 C

2.7 C

6 W/m

0.00 mm

16:10

2.8 C

1013.6 hpa

91 %

4.8 km/h aus 117

6.4 km/h aus SSE

1.5 C

1.6 C

1.7 C

2.7 C

7 W/m

0.00 mm

16:15

2.7 C

1013.6 hpa

91 %

3.2 km/h aus 114

6.4 km/h aus SSE

1.4 C

2.4 C

2.4 C

2.7 C

7 W/m

0.00 mm

16:20

2.7 C

1013.6 hpa

91 %

3.2 km/h aus 114

9.7 km/h aus S

1.4 C

2.4 C

2.4 C

2.7 C

7 W/m

0.00 mm

16:25

2.7 C

1013.6 hpa

91 %

4.8 km/h aus 117

9.7 km/h aus S

1.3 C

1.4 C

1.5 C

2.6 C

5 W/m

0.00 mm

16:30

2.6 C

1013.6 hpa

91 %

4.8 km/h aus 117

8.0 km/h aus S

1.3 C

1.4 C

1.4 C

2.6 C

5 W/m

0.00 mm

16:35

2.6 C

1013.6 hpa

91 %

6.4 km/h aus 116

9.7 km/h aus SSE

1.2 C

0.7 C

0.8 C

2.5 C

0 W/m

0.00 mm

16:40

2.5 C

1013.6 hpa

91 %

8.0 km/h aus 117

9.7 km/h aus SSE

1.2 C

0.2 C

0.2 C

2.4 C

0 W/m

0.00 mm

16:45

2.4 C

1013.5 hpa

91 %

6.4 km/h aus 116

8.0 km/h aus SSE

1.1 C

0.6 C

0.7 C

2.4 C

0 W/m

0.00 mm

16:50

2.4 C

1013.5 hpa

91 %

6.4 km/h aus 115

6.4 km/h aus SSE

1.1 C

0.5 C

0.6 C

2.3 C

0 W/m

0.00 mm

16:55

2.4 C

1013.5 hpa

91 %

4.8 km/h aus 115

6.4 km/h aus SSE

1.1 C

1.2 C

1.2 C

2.3 C

0 W/m

0.00 mm

17:00

2.3 C

1013.7 hpa

91 %

4.8 km/h aus 116

6.4 km/h aus SSE

1.0 C

1.1 C

1.2 C

2.3 C

0 W/m

0.00 mm

17:05

2.3 C

1013.7 hpa

91 %

4.8 km/h aus 117

8.0 km/h aus SSE

1.0 C

1.1 C

1.2 C

2.3 C

0 W/m

0.00 mm

17:10

2.3 C

1013.7 hpa

91 %

6.4 km/h aus 117

9.7 km/h aus SE

1.0 C

0.4 C

0.4 C

2.2 C

0 W/m

0.00 mm

17:15

2.3 C

1013.6 hpa

91 %

4.8 km/h aus 116

8.0 km/h aus SE

1.0 C

1.1 C

1.1 C

2.2 C

0 W/m

0.00 mm

17:20

2.3 C

1013.6 hpa

91 %

1.6 km/h aus 117

4.8 km/h aus SSE

1.0 C

2.2 C

2.3 C

2.2 C

0 W/m

0.00 mm

17:25

2.2 C

1013.6 hpa

91 %

3.2 km/h aus 114

4.8 km/h aus SSE

0.9 C

1.8 C

1.9 C

2.2 C

0 W/m

0.00 mm

17:30

2.2 C

1013.5 hpa

91 %

0.0 km/h aus 114

3.2 km/h aus SSE

0.9 C

2.2 C

2.2 C

2.2 C

0 W/m

0.00 mm

17:35

2.2 C

1013.5 hpa

91 %

1.6 km/h aus 115

3.2 km/h aus SSE

0.8 C

2.1 C

2.2 C

2.1 C

0 W/m

0.00 mm

17:40

2.1 C

1013.5 hpa

91 %

4.8 km/h aus 117

8.0 km/h aus SE

0.8 C

0.8 C

0.9 C

2.1 C

0 W/m

0.00 mm

17:45

2.1 C

1013.0 hpa

91 %

6.4 km/h aus 117

9.7 km/h aus SE

0.7 C

0.2 C

0.2 C

2.0 C

0 W/m

0.00 mm

17:50

2.0 C

1013.0 hpa

91 %

6.4 km/h aus 117

9.7 km/h aus SE

0.7 C

0.1 C

0.1 C

1.9 C

0 W/m

0.00 mm

17:55

2.0 C

1013.0 hpa

92 %

6.4 km/h aus 116

9.7 km/h aus ESE

0.8 C

0.1 C

0.1 C

1.9 C

0 W/m

0.00 mm

18:00

1.9 C

1012.7 hpa

92 %

8.0 km/h aus 114

9.7 km/h aus SE

0.8 C

-0.5 C

-0.4 C

1.9 C

0 W/m

0.00 mm

18:05

1.9 C

1012.7 hpa

91 %

6.4 km/h aus 114

9.7 km/h aus ESE

0.6 C

-0.1 C

0.0 C

1.8 C

0 W/m

0.00 mm

18:10

1.8 C

1012.7 hpa

91 %

6.4 km/h aus 116

8.0 km/h aus SE

0.5 C

-0.1 C

-0.1 C

1.8 C

0 W/m

0.00 mm

18:15

1.8 C

1013.0 hpa

91 %

4.8 km/h aus 116

6.4 km/h aus SE

0.5 C

0.4 C

0.5 C

1.7 C

0 W/m

0.00 mm

18:20

1.7 C

1013.0 hpa

91 %

3.2 km/h aus 117

6.4 km/h aus SSE

0.4 C

1.3 C

1.3 C

1.7 C

0 W/m

0.00 mm

18:25

1.7 C

1013.0 hpa

91 %

4.8 km/h aus 117

8.0 km/h aus S

0.4 C

0.3 C

0.4 C

1.6 C

0 W/m

0.00 mm

18:30

1.6 C

1013.1 hpa

91 %

6.4 km/h aus 117

8.0 km/h aus S

0.2 C

-0.4 C

-0.4 C

1.5 C

0 W/m

0.00 mm

18:35

1.4 C

1013.1 hpa

91 %

4.8 km/h aus 116

8.0 km/h aus SSE

0.1 C

0.1 C

0.2 C

1.4 C

0 W/m

0.00 mm

18:40

1.4 C

1013.1 hpa

91 %

4.8 km/h aus 114

6.4 km/h aus SSE

0.1 C

0.0 C

0.1 C

1.3 C

0 W/m

0.00 mm

18:45

1.3 C

1013.5 hpa

91 %

4.8 km/h aus 115

6.4 km/h aus SSE

0.0 C

-0.1 C

0.0 C

1.3 C

0 W/m

0.00 mm

18:50

1.3 C

1013.5 hpa

91 %

4.8 km/h aus 115

6.4 km/h aus SSE

0.0 C

-0.2 C

-0.1 C

1.2 C

0 W/m

0.00 mm

18:55

1.2 C

1013.5 hpa

92 %

4.8 km/h aus 116

6.4 km/h aus SSE

0.0 C

-0.3 C

-0.2 C

1.1 C

0 W/m

0.00 mm

19:00

1.2 C

1013.2 hpa

91 %

4.8 km/h aus 118

8.0 km/h aus SE

-0.1 C

-0.3 C

-0.2 C

1.1 C

0 W/m

0.00 mm

19:05

1.1 C

1013.2 hpa

92 %

4.8 km/h aus 117

6.4 km/h aus SE

0.0 C

-0.3 C

-0.2 C

1.0 C

0 W/m

0.00 mm

19:10

1.1 C

1013.2 hpa

92 %

3.2 km/h aus 117

6.4 km/h aus SE

-0.1 C

0.5 C

0.6 C

0.9 C

0 W/m

0.00 mm

19:15

1.0 C

1013.2 hpa

92 %

3.2 km/h aus 114

6.4 km/h aus SE

-0.2 C

0.4 C

0.5 C

0.9 C

0 W/m

0.00 mm

19:20

1.1 C

1013.2 hpa

92 %

4.8 km/h aus 115

6.4 km/h aus ESE

-0.1 C

-0.4 C

-0.3 C

0.9 C

0 W/m

0.00 mm

19:25

1.0 C

1013.2 hpa

92 %

4.8 km/h aus 115

8.0 km/h aus SE

-0.2 C

-0.4 C

-0.3 C

0.9 C

0 W/m

0.00 mm

19:30

1.0 C

1013.3 hpa

92 %

4.8 km/h aus 117

6.4 km/h aus SE

-0.2 C

-0.4 C

-0.3 C

0.9 C

0 W/m

0.00 mm

19:35

0.9 C

1013.3 hpa

92 %

3.2 km/h aus 117

6.4 km/h aus SE

-0.2 C

0.3 C

0.4 C

0.8 C

0 W/m

0.00 mm

19:40

0.9 C

1013.3 hpa

92 %

4.8 km/h aus 117

6.4 km/h aus SE

-0.2 C

-0.6 C

-0.4 C

0.8 C

0 W/m

0.00 mm

19:45

0.9 C

1013.1 hpa

92 %

4.8 km/h aus 116

6.4 km/h aus SE

-0.3 C

-0.6 C

-0.5 C

0.8 C

0 W/m

0.00 mm

19:50

0.8 C

1013.1 hpa

92 %

3.2 km/h aus 116

6.4 km/h aus SE

-0.3 C

0.2 C

0.3 C

0.7 C

0 W/m

0.00 mm

19:55

0.8 C

1013.1 hpa

92 %

3.2 km/h aus 114

6.4 km/h aus SE

-0.3 C

0.2 C

0.3 C

0.7 C

0 W/m

0.00 mm

20:00

0.8 C

1012.9 hpa

92 %

3.2 km/h aus 114

6.4 km/h aus ESE

-0.4 C

0.2 C

0.3 C

0.7 C

0 W/m

0.00 mm

20:05

0.8 C

1012.9 hpa

92 %

1.6 km/h aus 116

4.8 km/h aus ESE

-0.4 C

0.7 C

0.8 C

0.7 C

0 W/m

0.00 mm

20:10

0.8 C

1012.9 hpa

92 %

1.6 km/h aus 117

4.8 km/h aus ESE

-0.4 C

0.7 C

0.8 C

0.7 C

0 W/m

0.00 mm

20:15

0.8 C

1012.8 hpa

92 %

3.2 km/h aus 116

6.4 km/h aus ESE

-0.3 C

0.2 C

0.3 C

0.7 C

0 W/m

0.00 mm

20:20

0.9 C

1012.8 hpa

93 %

3.2 km/h aus 116

4.8 km/h aus ESE

-0.1 C

0.3 C

0.4 C

0.8 C

0 W/m

0.00 mm

20:25

0.9 C

1012.8 hpa

93 %

4.8 km/h aus 117

8.0 km/h aus SE

-0.1 C

-0.5 C

-0.4 C

0.9 C

0 W/m

0.00 mm

20:30

0.9 C

1012.6 hpa

93 %

6.4 km/h aus 117

11.3 km/h aus ESE

-0.1 C

-1.2 C

-1.1 C

0.9 C

0 W/m

0.00 mm

20:35

1.0 C

1012.6 hpa

93 %

6.4 km/h aus 114

9.7 km/h aus SE

0.0 C

-1.1 C

-1.0 C

0.9 C

0 W/m

0.00 mm

20:40

1.1 C

1012.6 hpa

93 %

6.4 km/h aus 114

9.7 km/h aus SE

0.1 C

-1.0 C

-0.9 C

1.0 C

0 W/m

0.00 mm

20:45

1.1 C

1012.6 hpa

93 %

4.8 km/h aus 117

8.0 km/h aus ESE

0.1 C

-0.3 C

-0.3 C

1.0 C

0 W/m

0.00 mm

20:50

1.1 C

1012.6 hpa

93 %

8.0 km/h aus 117

9.7 km/h aus SE

0.1 C

-1.6 C

-1.5 C

1.0 C

0 W/m

0.00 mm

20:55

1.1 C

1012.6 hpa

93 %

6.4 km/h aus 117

9.7 km/h aus SE

0.1 C

-0.9 C

-0.9 C

1.1 C

0 W/m

0.00 mm

21:00

1.1 C

1012.5 hpa

93 %

6.4 km/h aus 116

9.7 km/h aus ESE

0.1 C

-1.0 C

-0.9 C

1.0 C

0 W/m

0.00 mm

21:05

1.1 C

1012.5 hpa

93 %

6.4 km/h aus 117

9.7 km/h aus SE

0.1 C

-1.0 C

-0.9 C

1.0 C

0 W/m

0.00 mm

21:10

1.1 C

1012.5 hpa

93 %

4.8 km/h aus 115

8.0 km/h aus E

0.1 C

-0.3 C

-0.2 C

1.1 C

0 W/m

0.00 mm

21:15

1.1 C

1011.9 hpa

93 %

4.8 km/h aus 115

8.0 km/h aus ESE

0.1 C

-0.3 C

-0.2 C

1.1 C

0 W/m

0.00 mm

21:20

1.1 C

1011.9 hpa

93 %

4.8 km/h aus 115

9.7 km/h aus ESE

0.1 C

-0.3 C

-0.2 C

1.1 C

0 W/m

0.00 mm

21:25

1.2 C

1011.9 hpa

93 %

6.4 km/h aus 117

9.7 km/h aus ESE

0.2 C

-0.9 C

-0.8 C

1.1 C

0 W/m

0.00 mm

21:30

1.2 C

1012.0 hpa

93 %

4.8 km/h aus 117

8.0 km/h aus E

0.2 C

-0.2 C

-0.2 C

1.1 C

0 W/m

0.00 mm

21:35

1.2 C

1012.0 hpa

93 %

4.8 km/h aus 117

8.0 km/h aus SE

0.2 C

-0.2 C

-0.2 C

1.1 C

0 W/m

0.00 mm

21:40

1.2 C

1012.0 hpa

93 %

8.0 km/h aus 116

12.9 km/h aus SE

0.2 C

-1.4 C

-1.4 C

1.1 C

0 W/m

0.00 mm

21:45

1.2 C

1011.9 hpa

94 %

9.7 km/h aus 117

14.5 km/h aus SE

0.4 C

-1.8 C

-1.7 C

1.2 C

0 W/m

0.00 mm

21:50

1.3 C

1011.9 hpa

94 %

11.3 km/h aus 115

16.1 km/h aus SSE

0.4 C

-2.1 C

-2.1 C

1.2 C

0 W/m

0.00 mm

21:55

1.3 C

1011.9 hpa

94 %

9.7 km/h aus 113

16.1 km/h aus SE

0.5 C

-1.7 C

-1.6 C

1.3 C

0 W/m

0.00 mm

22:00

1.3 C

1011.7 hpa

94 %

8.0 km/h aus 117

14.5 km/h aus SE

0.5 C

-1.2 C

-1.2 C

1.3 C

0 W/m

0.00 mm

22:05

1.3 C

1011.7 hpa

94 %

8.0 km/h aus 117

11.3 km/h aus SE

0.5 C

-1.2 C

-1.2 C

1.3 C

0 W/m

0.00 mm

22:10

1.3 C

1011.7 hpa

94 %

8.0 km/h aus 117

9.7 km/h aus SE

0.5 C

-1.2 C

-1.2 C

1.3 C

0 W/m

0.00 mm

22:15

1.3 C

1011.5 hpa

93 %

8.0 km/h aus 116

12.9 km/h aus SE

0.3 C

-1.2 C

-1.2 C

1.3 C

0 W/m

0.00 mm

22:20

1.3 C

1011.5 hpa

93 %

8.0 km/h aus 117

11.3 km/h aus SE

0.3 C

-1.2 C

-1.2 C

1.3 C

0 W/m

0.00 mm

22:25

1.3 C

1011.5 hpa

93 %

8.0 km/h aus 115

12.9 km/h aus SE

0.3 C

-1.3 C

-1.2 C

1.2 C

0 W/m

0.00 mm

22:30

1.3 C

1011.4 hpa

93 %

9.7 km/h aus 115

16.1 km/h aus SE

0.3 C

-1.7 C

-1.7 C

1.2 C

0 W/m

0.00 mm

22:35

1.3 C

1011.4 hpa

93 %

9.7 km/h aus 114

16.1 km/h aus ESE

0.3 C

-1.7 C

-1.7 C

1.2 C

0 W/m

0.00 mm

22:40

1.3 C

1011.4 hpa

93 %

8.0 km/h aus 117

14.5 km/h aus ESE

0.3 C

-1.3 C

-1.2 C

1.2 C

0 W/m

0.00 mm

22:45

1.2 C

1011.5 hpa

93 %

8.0 km/h aus 116

11.3 km/h aus ESE

0.2 C

-1.3 C

-1.3 C

1.2 C

0 W/m

0.00 mm

22:50

1.3 C

1011.5 hpa

93 %

4.8 km/h aus 117

8.0 km/h aus ESE

0.3 C

-0.1 C

-0.1 C

1.2 C

0 W/m

0.00 mm

22:55

1.2 C

1011.5 hpa

93 %

4.8 km/h aus 117

9.7 km/h aus ESE

0.2 C

-0.2 C

-0.1 C

1.2 C

0 W/m

0.00 mm

23:00

1.2 C

1011.1 hpa

93 %

4.8 km/h aus 117

8.0 km/h aus ESE

0.2 C

-0.2 C

-0.1 C

1.2 C

0 W/m

0.00 mm

23:05

1.2 C

1011.1 hpa

93 %

4.8 km/h aus 115

8.0 km/h aus SE

0.2 C

-0.2 C

-0.1 C

1.2 C

0 W/m

0.00 mm

23:10

1.2 C

1011.1 hpa

93 %

6.4 km/h aus 112

9.7 km/h aus ESE

0.2 C

-0.8 C

-0.8 C

1.2 C

0 W/m

0.00 mm

23:15

1.2 C

1011.0 hpa

93 %

6.4 km/h aus 116

11.3 km/h aus SE

0.2 C

-0.8 C

-0.8 C

1.2 C

0 W/m

0.00 mm

23:20

1.2 C

1011.0 hpa

93 %

6.4 km/h aus 115

11.3 km/h aus SE

0.2 C

-0.8 C

-0.8 C

1.2 C

0 W/m

0.00 mm

23:25

1.3 C

1011.0 hpa

93 %

6.4 km/h aus 118

9.7 km/h aus SE

0.3 C

-0.8 C

-0.7 C

1.2 C

0 W/m

0.00 mm

23:30

1.3 C

1010.9 hpa

93 %

6.4 km/h aus 116

11.3 km/h aus SE

0.3 C

-0.8 C

-0.7 C

1.2 C

0 W/m

0.00 mm

23:35

1.3 C

1010.9 hpa

93 %

8.0 km/h aus 117

11.3 km/h aus SE

0.3 C

-1.3 C

-1.2 C

1.2 C

0 W/m

0.00 mm

23:40

1.3 C

1010.9 hpa

93 %

8.0 km/h aus 117

11.3 km/h aus ESE

0.3 C

-1.3 C

-1.2 C

1.2 C

0 W/m

0.00 mm

23:45

1.3 C

1010.6 hpa

93 %

9.7 km/h aus 113

16.1 km/h aus SE

0.3 C

-1.7 C

-1.7 C

1.2 C

0 W/m

0.00 mm

23:50

1.3 C

1010.6 hpa

93 %

11.3 km/h aus 113

17.7 km/h aus SE

0.3 C

-2.1 C

-2.0 C

1.3 C

0 W/m

0.00 mm

23:55

1.3 C

1010.6 hpa

93 %

11.3 km/h aus 117

17.7 km/h aus SE

0.3 C

-2.1 C

-2.1 C

1.2 C

0 W/m

0.00 mm